Time,TemperatureF,DewpointF,PressureIn,WindDirection,WindDirectionDegrees,WindSpeedMPH,WindSpeedGustMPH,Humidity,HourlyPrecipIn,Conditions,Clouds,dailyrainin,SoftwareType,DateUTC
2015-09-02 00:00:00,61.2,51.0,29.59,North,0,0.0,0.0,69,0.00,,,0.00,WUHU216HW,2015-09-02 07:00:00,
2015-09-02 00:05:00,61.2,51.0,29.59,North,0,0.0,0.0,69,0.00,,,0.00,WUHU216HW,2015-09-02 07:05:00,
2015-09-02 00:10:00,61.2,51.0,29.59,North,0,0.0,0.0,69,0.00,,,0.00,WUHU216HW,2015-09-02 07:10:00,
2015-09-02 00:30:00,61.2,51.0,29.58,North,0,0.0,0.0,69,0.00,,,0.00,WUHU216HW,2015-09-02 07:30:00,
2015-09-02 00:35:00,61.2,51.0,29.58,North,0,0.0,0.0,69,0.00,,,0.00,WUHU216HW,2015-09-02 07:35:00,
2015-09-02 01:00:00,60.5,52.2,29.57,North,0,0.0,0.0,74,0.00,,,0.00,WUHU216HW,2015-09-02 08:00:00,
2015-09-02 01:05:00,60.5,52.2,29.57,North,0,0.0,0.0,74,0.00,,,0.00,WUHU216HW,2015-09-02 08:05:00,
2015-09-02 01:10:00,60.5,52.2,29.57,North,0,0.0,0.0,74,0.00,,,0.00,WUHU216HW,2015-09-02 08:10:00,
2015-09-02 01:30:00,59.2,51.7,29.57,North,0,0.0,0.0,76,0.00,,,0.00,WUHU216HW,2015-09-02 08:30:00,
2015-09-02 01:35:00,59.2,51.7,29.57,North,0,0.0,0.0,76,0.00,,,0.00,WUHU216HW,2015-09-02 08:35:00,
2015-09-02 02:00:00,58.7,50.4,29.56,North,0,0.0,0.0,74,0.00,,,0.00,WUHU216HW,2015-09-02 09:00:00,
2015-09-02 02:05:00,58.7,50.4,29.56,North,0,0.0,0.0,74,0.00,,,0.00,WUHU216HW,2015-09-02 09:05:00,
2015-09-02 02:10:00,58.7,50.4,29.56,North,0,0.0,0.0,74,0.00,,,0.00,WUHU216HW,2015-09-02 09:10:00,
2015-09-02 02:30:00,57.2,49.0,29.55,North,0,0.0,0.0,74,0.00,,,0.00,WUHU216HW,2015-09-02 09:30:00,
2015-09-02 02:35:00,57.2,49.0,29.55,North,0,0.0,0.0,74,0.00,,,0.00,WUHU216HW,2015-09-02 09:35:00,
2015-09-02 03:00:00,57.1,47.7,29.55,North,0,0.0,0.0,71,0.00,,,0.00,WUHU216HW,2015-09-02 10:00:00,
2015-09-02 03:05:00,57.1,47.7,29.55,North,0,0.0,0.0,71,0.00,,,0.00,WUHU216HW,2015-09-02 10:05:00,
2015-09-02 03:10:00,57.1,47.7,29.55,North,0,0.0,0.0,71,0.00,,,0.00,WUHU216HW,2015-09-02 10:10:00,
2015-09-02 03:30:00,56.5,46.9,29.54,North,0,0.0,0.0,70,0.00,,,0.00,WUHU216HW,2015-09-02 10:30:00,
2015-09-02 03:35:00,56.5,46.9,29.54,North,0,0.0,0.0,70,0.00,,,0.00,WUHU216HW,2015-09-02 10:35:00,
2015-09-02 04:00:00,55.8,47.3,29.53,North,0,0.0,0.0,73,0.00,,,0.00,WUHU216HW,2015-09-02 11:00:00,
2015-09-02 04:05:00,55.8,47.3,29.53,North,0,0.0,0.0,73,0.00,,,0.00,WUHU216HW,2015-09-02 11:05:00,
2015-09-02 04:30:00,55.8,46.3,29.54,North,0,0.0,0.0,70,0.00,,,0.00,WUHU216HW,2015-09-02 11:30:00,
2015-09-02 04:35:00,55.8,46.3,29.54,North,0,0.0,0.0,70,0.00,,,0.00,WUHU216HW,2015-09-02 11:35:00,
2015-09-02 05:00:00,55.4,45.9,29.55,North,0,0.0,0.0,70,0.00,,,0.00,WUHU216HW,2015-09-02 12:00:00,
2015-09-02 05:05:00,55.4,45.9,29.55,North,0,0.0,0.0,70,0.00,,,0.00,WUHU216HW,2015-09-02 12:05:00,
2015-09-02 05:30:00,55.6,45.6,29.57,North,0,0.0,0.0,69,0.00,,,0.00,WUHU216HW,2015-09-02 12:30:00,
2015-09-02 06:00:00,54.7,46.6,29.58,North,0,0.0,0.0,74,0.00,,,0.00,WUHU216HW,2015-09-02 13:00:00,
2015-09-02 06:05:00,54.7,46.6,29.58,North,0,0.0,0.0,74,0.00,,,0.00,WUHU216HW,2015-09-02 13:05:00,
2015-09-02 06:30:00,53.3,46.6,29.60,North,0,0.0,0.0,78,0.00,,,0.00,WUHU216HW,2015-09-02 13:30:00,
2015-09-02 06:35:00,53.3,46.6,29.60,North,0,0.0,0.0,78,0.00,,,0.00,WUHU216HW,2015-09-02 13:35:00,
2015-09-02 07:00:00,54.0,47.0,29.62,North,0,0.0,0.0,77,0.00,,,0.00,WUHU216HW,2015-09-02 14:00:00,
2015-09-02 07:01:00,54.0,47.0,29.62,North,0,0.0,0.0,77,0.00,,,0.00,WUHU216HW,2015-09-02 14:01:00,
2015-09-02 07:06:00,54.0,47.0,29.62,North,0,0.0,0.0,77,0.00,,,0.00,WUHU216HW,2015-09-02 14:06:00,
2015-09-02 07:30:00,53.5,49.1,29.64,North,0,0.0,0.0,85,0.00,,,0.00,WUHU216HW,2015-09-02 14:30:00,
2015-09-02 07:35:00,53.5,49.1,29.64,North,0,0.0,0.0,85,0.00,,,0.00,WUHU216HW,2015-09-02 14:35:00,
2015-09-02 08:00:00,53.5,49.3,29.64,North,0,0.0,0.0,86,0.00,,,0.00,WUHU216HW,2015-09-02 15:00:00,
2015-09-02 08:05:00,53.5,49.3,29.64,North,0,0.0,0.0,86,0.00,,,0.00,WUHU216HW,2015-09-02 15:05:00,
2015-09-02 08:30:00,54.2,48.8,29.64,North,0,0.0,0.0,82,0.00,,,0.00,WUHU216HW,2015-09-02 15:30:00,
2015-09-02 08:35:00,54.2,48.8,29.64,North,0,0.0,0.0,82,0.00,,,0.00,WUHU216HW,2015-09-02 15:35:00,
2015-09-02 09:00:00,55.8,48.6,29.65,North,0,0.0,0.0,77,0.00,,,0.00,WUHU216HW,2015-09-02 16:00:00,
2015-09-02 09:05:00,55.8,48.6,29.65,North,0,0.0,0.0,77,0.00,,,0.00,WUHU216HW,2015-09-02 16:05:00,
2015-09-02 09:30:00,56.9,47.2,29.65,North,0,0.0,0.0,70,0.00,,,0.00,WUHU216HW,2015-09-02 16:30:00,
2015-09-02 09:35:00,56.9,47.2,29.65,North,0,0.0,0.0,70,0.00,,,0.00,WUHU216HW,2015-09-02 16:35:00,
2015-09-02 10:01:00,58.0,47.4,29.65,North,0,0.0,0.0,68,0.00,,,0.00,WUHU216HW,2015-09-02 17:01:00,
2015-09-02 10:06:00,58.0,47.4,29.65,North,0,0.0,0.0,68,0.00,,,0.00,WUHU216HW,2015-09-02 17:06:00,
2015-09-02 10:31:00,59.9,48.2,29.65,North,0,0.0,0.0,65,0.00,,,0.00,WUHU216HW,2015-09-02 17:31:00,
2015-09-02 10:36:00,59.9,48.2,29.65,North,0,0.0,0.0,65,0.00,,,0.00,WUHU216HW,2015-09-02 17:36:00,
2015-09-02 11:00:00,60.8,48.6,29.65,North,0,0.0,0.0,64,0.00,,,0.00,WUHU216HW,2015-09-02 18:00:00,
2015-09-02 11:05:00,60.8,48.6,29.65,North,0,0.0,0.0,64,0.00,,,0.00,WUHU216HW,2015-09-02 18:05:00,
2015-09-02 11:30:00,61.7,47.8,29.65,North,0,0.0,0.0,60,0.00,,,0.00,WUHU216HW,2015-09-02 18:30:00,
2015-09-02 11:35:00,61.7,47.8,29.65,North,0,0.0,0.0,60,0.00,,,0.00,WUHU216HW,2015-09-02 18:35:00,
2015-09-02 12:00:00,62.6,46.6,29.65,NNE,23,0.0,0.0,56,0.00,,,0.00,WUHU216HW,2015-09-02 19:00:00,
2015-09-02 12:05:00,62.6,46.6,29.65,NNE,23,0.0,0.0,56,0.00,,,0.00,WUHU216HW,2015-09-02 19:05:00,
2015-09-02 12:30:00,63.4,46.4,29.65,NNE,23,0.0,0.0,54,0.00,,,0.00,WUHU216HW,2015-09-02 19:30:00,
2015-09-02 12:35:00,63.4,46.4,29.65,NNE,23,0.0,0.0,54,0.00,,,0.00,WUHU216HW,2015-09-02 19:35:00,
2015-09-02 13:00:00,63.9,46.8,29.65,NNE,23,0.0,0.0,54,0.00,,,0.00,WUHU216HW,2015-09-02 20:00:00,
2015-09-02 13:05:00,63.9,46.8,29.65,NNE,23,0.0,0.0,54,0.00,,,0.00,WUHU216HW,2015-09-02 20:05:00,
2015-09-02 13:30:00,63.5,45.6,29.64,NNE,23,0.0,0.0,52,0.00,,,0.00,WUHU216HW,2015-09-02 20:30:00,
2015-09-02 13:35:00,63.5,45.6,29.64,NNE,23,0.0,0.0,52,0.00,,,0.00,WUHU216HW,2015-09-02 20:35:00,
2015-09-02 14:00:00,63.7,44.7,29.65,NNE,23,0.0,0.0,50,0.00,,,0.00,WUHU216HW,2015-09-02 21:00:00,
2015-09-02 14:05:00,63.7,44.7,29.65,NNE,23,0.0,0.0,50,0.00,,,0.00,WUHU216HW,2015-09-02 21:05:00,
2015-09-02 14:30:00,64.6,43.8,29.65,NNE,23,0.0,0.0,47,0.00,,,0.00,WUHU216HW,2015-09-02 21:30:00,
2015-09-02 14:35:00,64.6,43.8,29.65,NNE,23,0.0,0.0,47,0.00,,,0.00,WUHU216HW,2015-09-02 21:35:00,
2015-09-02 15:00:00,64.8,45.2,29.64,NNE,23,0.0,0.0,49,0.00,,,0.00,WUHU216HW,2015-09-02 22:00:00,
2015-09-02 15:01:00,64.8,45.2,29.64,NNE,23,0.0,0.0,49,0.00,,,0.00,WUHU216HW,2015-09-02 22:01:00,
2015-09-02 15:06:00,64.8,45.2,29.64,NNE,23,0.0,0.0,49,0.00,,,0.00,WUHU216HW,2015-09-02 22:06:00,
2015-09-02 15:30:00,65.3,44.5,29.63,NNE,23,0.0,0.0,47,0.00,,,0.00,WUHU216HW,2015-09-02 22:30:00,
2015-09-02 15:35:00,65.3,44.5,29.63,NNE,23,0.0,0.0,47,0.00,,,0.00,WUHU216HW,2015-09-02 22:35:00,
2015-09-02 16:00:00,65.0,43.6,29.63,NNE,23,0.0,0.0,46,0.00,,,0.00,WUHU216HW,2015-09-02 23:00:00,
2015-09-02 16:05:00,65.0,43.6,29.63,NNE,23,0.0,0.0,46,0.00,,,0.00,WUHU216HW,2015-09-02 23:05:00,
2015-09-02 16:30:00,65.3,42.8,29.62,NNE,23,0.0,0.0,44,0.00,,,0.00,WUHU216HW,2015-09-02 23:30:00,
2015-09-02 16:35:00,65.3,42.8,29.62,NNE,23,0.0,0.0,44,0.00,,,0.00,WUHU216HW,2015-09-02 23:35:00,
2015-09-02 17:00:00,63.4,43.2,29.63,NNE,23,0.0,0.0,48,0.00,,,0.00,WUHU216HW,2015-09-03 00:00:00,
2015-09-02 17:05:00,63.2,43.1,29.63,NNE,23,0.0,0.0,48,0.00,,,0.00,WUHU216HW,2015-09-03 00:05:00,
2015-09-02 17:10:00,63.2,43.1,29.63,NNE,23,0.0,0.0,48,0.00,,,0.00,WUHU216HW,2015-09-03 00:10:00,
2015-09-02 17:30:00,62.6,42.6,29.63,NNE,23,0.0,0.0,48,0.00,,,0.00,WUHU216HW,2015-09-03 00:30:00,
2015-09-02 17:35:00,62.6,42.6,29.63,NNE,23,0.0,0.0,48,0.00,,,0.00,WUHU216HW,2015-09-03 00:35:00,